SBFISBLO

Guest
Details From SBFI - Foz Do Iguacu
To SBLO - Londrina
Flight Number -
Tags Generated
Created
Modified
Stats Distance 228 nm / 423 km
Max Altitude 0 ft / 0 m
Waypoints 3
Social Downloads 1
Likes 0
Share VATSIM

Download

Looking for another format? Having issues loading an existing format? Contact us
Advertisement - Login to hide

Notes

Generated

Route

SBFI PP SBLO

ID Type Via Altitude Latitude Longitude Leg Dist Tot Dist Heading (true) Name
O SBFI APT - 0 ft / 0 m -25.58931˚ -54.49576˚ - 0 nm - -
PP NDB - 0 ft / 0 m -23.32783˚ -51.14950˚ 227 nm 227 nm 54° / 53° GUARUJA NDB
O SBLO APT - 0 ft / 0 m -23.33033˚ -51.13977˚ 0 nm 228 nm 106° / 106° -

Altitude Profile

Advertisement - Login to hide

Weather


0- 5 10 15 20 25 30 35+ Temperature / ° C

Clouds and Precipitation
Forecast for 2018-05-22 18:00 UTC. Updated 3 hours ago

Ground ~20,000 ft ~40,000 ft Winds

SBFI

Details ICAO SBFI (IGU)
Name Foz Do Iguacu
Region Brazil
Timezone America/Sao_Paulo (UTC-3.0)
Stats Elevation 787 ft / 240 m (AMSL)
Location -25.595790° -54.487443°
Runways 1
Magnetic Variation 16.359° W

METAR

SBFI 221900Z 22004KT CAVOK 19/10 Q1019

Decode

TAF

TAF SBFI 221515Z 2218/2318 17004KT CAVOK TX20/2218Z TN07/2309Z BECMG 2308/2310 0500 FG BKN002 BECMG 2313/2315 CAVOK RMK PDW

Decode

Departure Runways

ID Width Length Bearing (true) Bearing (mag) Surface Threshold Offset Overrun Length
14 148 ft / 45 m 7,232 ft / 2,204 m 130.83° 147.19° Asphalt 0 ft / 0 m 164 ft / 50 m
32 148 ft / 45 m 7,232 ft / 2,204 m 310.83° 327.19° Asphalt 0 ft / 0 m 197 ft / 60 m

SBLO

Details ICAO SBLO (LDB)
Name Londrina
Region Brazil
Timezone America/Sao_Paulo (UTC-3.0)
Stats Elevation 1,867 ft / 569 m (AMSL)
Location -23.333624° -51.130072°
Runways 1
Magnetic Variation 19.139° W

METAR

SBLO 221900Z 09006KT CAVOK 23/08 Q1018

Decode

TAF

TAF TAF SBLO 221515Z 2218/2306 22004KT CAVOK TX22/2218Z TN12/2306Z RMK PDW

Decode

Destination Runways

ID Width Length Bearing (true) Bearing (mag) Surface Threshold Offset Overrun Length
13 148 ft / 45 m 6,926 ft / 2,111 m 110.29° 129.43° Asphalt 975 ft / 297 m 0 ft / 0 m
31 148 ft / 45 m 6,926 ft / 2,111 m 290.28° 309.42° Asphalt 0 ft / 0 m 100 ft / 30 m

Popular Alternatives